CW4167 Weather Reports


Display with metric or nautical units.
time (UTC)temp
F
wind
direction
speed
MPH
gust
MPH
rain 1hr
in
rain 24hr
in
rain mn
in
humidity
%
barometer
mb
20260508112706 59 102 16.0 21.0 0.00 0.00 0.00 40 1021.1
20260508112205 59 102 15.0 18.0 0.00 0.00 0.00 40 1021.2
20260508111206 59 119 18.0 22.0 0.00 0.00 0.00 40 1021.2
20260508105206 59 132 16.0 22.0 0.00 0.00 0.00 40 1021.1
20260508103706 59 109 19.0 22.0 0.00 0.00 0.00 37 1021.0
20260508103206 59 139 14.0 21.0 0.00 0.00 0.00 37 1021.0
20260508102706 60 108 20.0 26.0 0.00 0.00 0.00 35 1021.0
20260508102206 60 107 14.0 23.0 0.00 0.00 0.00 38 1020.9
20260508101706 60 106 19.0 22.0 0.00 0.00 0.00 38 1020.9
20260508100706 60 112 13.0 20.0 0.00 0.00 0.00 38 1020.8
20260508095706 60 114 18.0 23.0 0.00 0.00 0.00 37 1020.8
20260508095205 60 100 17.0 23.0 0.00 0.00 0.00 39 1020.9
20260508094205 59 103 16.0 20.0 0.00 0.00 0.00 49 1020.9
20260508093206 59 108 14.0 20.0 0.00 0.00 0.00 54 1020.9
20260508084706 58 104 11.0 16.0 0.00 0.00 0.00 55 1020.8
20260508084205 58 109 13.0 16.0 0.00 0.00 0.00 53 1020.8
20260508083706 58 104 13.0 17.0 0.00 0.00 0.00 54 1020.8
20260508082706 58 86 10.0 15.0 0.00 0.00 0.00 53 1020.7
20260508081705 58 92 9.0 16.0 0.00 0.00 0.00 56 1020.5
20260508072705 57 91 10.0 14.0 0.00 0.00 0.00 60 1020.4
20260508071705 56 79 7.0 8.0 0.00 0.00 0.00 59 1020.4
20260508071205 56 88 9.0 10.0 0.00 0.00 0.00 61 1020.3
20260508070705 56 68 4.0 10.0 0.00 0.00 0.00 64 1020.2
20260508070205 56 68 6.0 7.0 0.00 0.00 0.00 66 1020.2
20260508065705 55 41 5.0 8.0 0.00 0.00 0.00 65 1020.1
20260508064705 55 90 9.0 10.0 0.00 0.00 0.00 65 1020.0
20260508064205 55 93 6.0 8.0 0.00 0.00 0.00 66 1020.0
20260508063205 54 85 9.0 13.0 0.00 0.00 0.00 66 1019.8
20260508061705 53 88 4.0 6.0 0.00 0.00 0.00 69 1019.7
20260508061205 53 64 5.0 6.0 0.00 0.00 0.00 70 1019.7
20260508060705 52 59 4.0 5.0 0.00 0.00 0.00 73 1019.7
20260508060206 52 31 3.0 5.0 0.00 0.00 0.00 74 1019.6
20260508053705 48 101 0.0 0.0 0.00 0.00 0.00 84 1019.4
20260508052706 46 131 0.0 0.0 0.00 0.00 0.00 85 1019.5
20260508051205 43 133 0.0 0.0 0.00 0.00 0.00 84 1019.4
20260508050705 43 133 0.0 0.0 0.00 0.00 0.00 84 1019.4
20260508050207 43 133 0.0 0.0 0.00 0.00 0.00 85 1019.4
20260508042205 38 133 0.0 0.0 0.00 0.00 0.00 88 1019.2
20260508041205 37 133 0.0 0.0 0.00 0.00 0.00 87 1019.1
20260508040205 36 133 0.0 0.0 0.00 0.00 0.00 87 1019.2
20260508035706 36 133 0.0 0.0 0.00 0.00 0.00 87 1019.2
20260508034706 36 133 0.0 0.0 0.00 0.00 0.00 86 1019.1
20260508033705 37 133 0.0 0.0 0.00 0.00 0.00 86 1019.0
20260508032705 37 133 0.0 0.0 0.00 0.00 0.00 86 1019.0
20260508031205 37 133 0.0 0.0 0.00 0.00 0.00 86 1018.9
20260508030705 37 133 0.0 0.0 0.00 0.00 0.00 86 1018.9
20260508030205 37 133 0.0 0.0 0.00 0.00 0.00 86 1018.9
20260508025705 37 133 0.0 0.0 0.00 0.00 0.00 86 1018.9
20260508025206 37 133 0.0 0.0 0.00 0.00 0.00 86 1018.9
20260508024705 37 133 0.0 0.0 0.00 0.00 0.00 86 1018.9
20260508024205 37 133 0.0 0.0 0.00 0.00 0.00 86 1018.8
20260508023205 37 133 0.0 0.0 0.00 0.00 0.00 86 1018.8
20260508022705 37 133 0.0 0.0 0.00 0.00 0.00 86 1018.8
20260508021707 37 133 0.0 0.0 0.00 0.00 0.00 85 1018.7
20260508021205 37 133 0.0 0.0 0.00 0.00 0.00 85 1018.7
20260508020205 38 133 0.0 0.0 0.00 0.00 0.00 85 1018.7
20260508015205 38 133 0.0 0.0 0.00 0.00 0.00 85 1018.6
20260508013705 38 133 0.0 0.0 0.00 0.00 0.00 84 1018.6
20260508013205 38 133 0.0 1.0 0.00 0.00 0.00 84 1018.5
20260508012705 39 133 2.0 3.0 0.00 0.00 0.00 84 1018.5
20260508012206 39 133 3.0 3.0 0.00 0.00 0.00 84 1018.5
20260508011705 39 133 4.0 3.0 0.00 0.00 0.00 83 1018.5
20260508011205 39 133 0.0 0.0 0.00 0.00 0.00 82 1018.5
20260508005705 40 133 0.0 0.0 0.00 0.00 0.00 83 1018.5
20260508004705 40 133 2.0 3.0 0.00 0.00 0.00 83 1018.5
20260508003204 41 127 5.0 5.0 0.00 0.00 0.00 83 1018.3
20260508002205 41 122 6.0 6.0 0.00 0.00 0.00 84 1018.4
20260508000705 41 126 5.0 6.0 0.00 0.00 0.00 84 1018.3
20260507235706 41 105 6.0 5.0 0.00 0.00 0.00 84 1018.3
20260507235205 41 105 5.0 5.0 0.00 0.00 0.00 84 1018.2
20260507234705 41 105 5.0 6.0 0.00 0.00 0.00 84 1018.2
20260507234205 41 88 5.0 5.0 0.00 0.00 0.00 84 1018.2
20260507233704 41 81 5.0 5.0 0.00 0.00 0.00 83 1018.1
20260507233205 41 81 5.0 5.0 0.00 0.00 0.00 83 1018.1
20260507232205 41 81 2.0 2.0 0.00 0.00 0.00 82 1018.2
20260507225205 42 83 5.0 5.0 0.00 0.00 0.00 82 1018.0
20260507224205 42 82 5.0 5.0 0.00 0.00 0.00 82 1017.9
20260507223705 42 70 5.0 5.0 0.00 0.00 0.00 82 1017.9
20260507222705 41 67 3.0 5.0 0.00 0.00 0.00 82 1017.8
20260507222204 41 63 3.0 3.0 0.00 0.00 0.00 82 1017.8
20260507221208 41 62 3.0 3.0 0.00 0.00 0.00 82 1017.6
20260507220705 41 62 3.0 3.0 0.00 0.00 0.00 81 1017.6
20260507220205 41 62 3.0 3.0 0.00 0.00 0.00 81 1017.6
20260507215706 42 62 0.0 3.0 0.00 0.00 0.00 81 1017.6
20260507214206 42 62 0.0 0.0 0.00 0.00 0.00 80 1017.5
20260507213704 42 62 0.0 0.0 0.00 0.00 0.00 80 1017.6
20260507213205 42 62 0.0 0.0 0.00 0.00 0.00 80 1017.5
20260507212205 43 62 0.0 0.0 0.00 0.00 0.00 79 1017.4
20260507211704 43 62 0.0 0.0 0.00 0.00 0.00 79 1017.4
20260507205705 44 62 2.0 3.0 0.00 0.00 0.00 77 1017.3
20260507204705 45 35 0.0 0.0 0.00 0.00 0.00 77 1017.3
20260507202204 46 356 0.0 0.0 0.00 0.00 0.00 74 1017.0
20260507201706 46 356 0.0 0.0 0.00 0.00 0.00 74 1016.9
20260507201204 46 356 0.0 0.0 0.00 0.00 0.00 74 1016.9
20260507200204 47 356 0.0 0.0 0.00 0.00 0.00 72 1016.8
20260507195206 48 356 0.0 0.0 0.00 0.00 0.00 70 1016.7
20260507194704 48 356 0.0 0.0 0.00 0.00 0.00 70 1016.7
20260507192704 50 356 0.0 0.0 0.00 0.00 0.00 67 1016.5
20260507191704 51 356 0.0 0.0 0.00 0.00 0.00 65 1016.5
20260507191205 51 356 0.0 0.0 0.00 0.00 0.00 65 1016.5
20260507185704 52 356 1.0 2.0 0.00 0.00 0.00 63 1016.3
20260507184205 53 356 3.0 5.0 0.00 0.00 0.00 62 1016.2
20260507182704 53 354 3.0 5.0 0.00 0.00 0.00 62 1016.2
20260507182204 53 354 3.0 5.0 0.00 0.00 0.00 61 1016.2
20260507181704 54 353 3.0 5.0 0.00 0.00 0.00 61 1016.2
20260507181205 54 353 5.0 7.0 0.00 0.00 0.00 61 1016.2
20260507180704 54 2 5.0 6.0 0.00 0.00 0.00 61 1016.2
20260507175704 55 0 6.0 7.0 0.00 0.00 0.00 60 1015.9
20260507175206 55 349 5.0 7.0 0.00 0.00 0.00 60 1015.9
20260507173204 55 347 9.0 10.0 0.00 0.00 0.00 58 1015.9
20260507172704 55 344 7.0 8.0 0.00 0.00 0.00 58 1015.9
20260507171204 56 353 10.0 14.0 0.00 0.00 0.00 55 1015.7
20260507165204 56 355 9.0 13.0 0.00 0.00 0.00 53 1015.5
20260507163706 57 334 7.0 13.0 0.00 0.00 0.00 53 1015.6
20260507162704 56 350 10.0 14.0 0.00 0.00 0.00 52 1015.6
20260507154705 58 348 9.0 14.0 0.00 0.00 0.00 52 1015.5
20260507153705 58 338 10.0 14.0 0.00 0.00 0.00 53 1015.5
20260507153204 58 333 9.0 14.0 0.00 0.00 0.00 50 1015.4
20260507152204 58 352 12.0 18.0 0.00 0.00 0.00 53 1015.2
20260507151706 58 344 11.0 15.0 0.00 0.00 0.00 52 1015.2
20260507150704 58 337 12.0 16.0 0.00 0.00 0.00 53 1015.2
20260507145204 58 353 14.0 16.0 0.00 0.00 0.00 49 1015.1
20260507144704 58 328 14.0 17.0 0.00 0.00 0.00 51 1015.2
20260507143706 58 339 14.0 17.0 0.00 0.00 0.00 51 1015.1
20260507142704 58 349 12.0 15.0 0.00 0.00 0.00 53 1015.2
20260507141204 58 352 12.0 16.0 0.00 0.00 0.00 53 1015.1
20260507140704 58 341 13.0 16.0 0.00 0.00 0.00 54 1015.1
20260507140204 58 336 10.0 16.0 0.00 0.00 0.00 53 1015.1
20260507135704 58 349 15.0 17.0 0.00 0.00 0.00 53 1015.1
20260507135204 58 355 14.0 17.0 0.00 0.00 0.00 53 1015.1
20260507134204 58 329 10.0 17.0 0.00 0.00 0.00 54 1015.1
20260507133704 58 353 17.0 18.0 0.00 0.00 0.00 54 1015.1
20260507133205 58 346 14.0 17.0 0.00 0.00 0.00 53 1015.1
20260507131704 58 343 13.0 18.0 0.00 0.00 0.00 54 1015.2
20260507125704 58 341 13.0 17.0 0.00 0.00 0.00 52 1015.0
20260507124704 58 346 14.0 18.0 0.00 0.00 0.00 56 1015.0
20260507123203 58 346 14.0 18.0 0.00 0.00 0.00 57 1014.9
20260507122705 58 336 14.0 18.0 0.00 0.00 0.00 56 1014.9
20260507121705 58 336 14.0 16.0 0.00 0.00 0.00 55 1014.9
20260507121204 58 322 15.0 18.0 0.00 0.00 0.00 55 1014.8
20260507120704 58 337 12.0 17.0 0.00 0.00 0.00 56 1014.8
20260507115706 58 337 13.0 17.0 0.00 0.00 0.00 57 1014.8
20260507113707 58 347 13.0 17.0 0.00 0.00 0.00 60 1014.7